SCP
-0 -0 0 -0 0 -0 -0 -0 -0 -0 0 0 0 0 0 0 0 0 0 0 0 0 0 0 0 0 0 0 0 0 0 0 0 0 0 0 0 0 0 0 0 0 0 0 0 0 0 0 0
0 0 0 0 -0 -0 -0 -0 0 0 0 0 0 0 0 0 0 0 0 0 0 0 0 0 0 0 0 0 0 0 0 0 0 0 0 0 0 0 0 0 0 0 0 0 0 0 0 0 0
0 0 0 0 0 0 -0 0 0 -0 0 0 0 0 0 0 0 0 0 0 0 0 0 0 0 0 0 0 0 0 0 0 0 0 0 0 0 0 0 0 0 0 0 0 0 0 0 0 0
0 0 0 0 0 -0 0 0 0 0 0 0 0 0 0 0 0 0 -0 0 0 0 0 0 0 0 0 0 0 0 0 0 0 0 0 0 0 0 0 0 0 0 0 0 0 0 0 0 0
0 0 0 0 0 0 -0 0 0 0 0 0 0 0 0 0 0 0 0 0 0 0 0 0 0 0 0 0 0 0 0 0 0 0 0 0 0 0 0 0 0 0 0 0 0 0 0 0 0
0 0 0 0 0 0 -0 0 0 0 -0 0 0 0 0 0 0 0 0 0 0 0 0 0 0 0 0 0 0 0 0 0 0 0 0 0 0 0 0 0 0 0 0 0 0 0 0 0 0
0 0 0 -0 -0 0 0 -0 0 -0 0 0 0 0 0 0 0 0 0 0 0 0 0 0 0 0 0 0 0 0 0 0 0 0 0 0 0 0 0 0 0 0 0 0 0 0 0 0 0
0 0 0 0 0 0 0 -0 0 -0 0 -0 0 0 0 0 0 0 0 0 0 0 0 0 0 0 0 0 0 0 0 0 0 0 0 0 0 0 0 0 0 0 0 0 0 0 0 0 0
0 0 0 0 0 0 0 0 -0 -0 0 -0 0 0 0 0 0 0 0 0 0 0 0 0 0 0 0 0 0 0 0 0 0 0 0 0 0 0 0 0 0 0 0 0 0 0 0 0 0
0 0 0 0 0 0 0 0 -0 0 0 0 0 0 0 0 0 0 0 0 0 0 0 0 0 0 0 0 0 0 0 0 0 0 0 0 0 0 0 0 0 0 0 0 0 0 0 0 0
0 0 0 0 0 0 0 0 -0 0 -0 -0 0 0 0 0 0 0 0 0 0 0 0 0 0 0 0 0 0 0 0 0 0 0 0 0 0 0 0 0 0 0 0 0 0 0 0 0 0
0 0 0 0 0 0 -0 -0 -0 -0 -0 0 0 0 0 0 0 0 0 0 0 0 0 0 0 0 0 0 0 0 0 0 0 0 0 0 0 0 0 0 0 0 0 0 0 0 0 0 0
0 0 0 0 0 0 0 0 0 -0 -0 -0 0 0 0 0 0 0 0 0 0 0 0 0 0 0 0 0 0 0 0 0 0 0 0 0 0 0 0 0 0 0 0 0 0 0 0 0 0
0 0 0 0 0 0 0 0 0 0 0 0 0 0 0 0 0 0 0 0 0 0 0 0 0 0 0 0 0 0 0 0 0 0 0 0 0 0 0 0 0 0 0 0 0 0 0 0 0
0 0 0 0 0 0 0 0 0 0 0 0 0 0 0 0 0 0 0 0 0 0 0 0 0 0 0 0 0 0 0 0 0 0 0 0 0 0 0 0 0 0 0 0 0 0 0 0 0
0 0 0 0 0 0 0 0 0 0 0 0 0 0 0 0 0 0 0 0 0 0 0 0 0 0 0 0 0 0 0 0 0 0 0 0 0 0 0 0 0 0 0 0 0 0 0 0 0
0 0 0 0 0 0 0 0 0 0 0 0 0 0 0 0 0 0 0 0 0 0 0 0 0 0 0 0 0 0 0 0 0 0 0 0 0 0 0 0 0 0 0 0 0 0 0 0 0
0 0 0 0 0 0 0 0 0 0 0 0 0 0 0 0 0 0 0 0 0 0 0 0 0 0 0 0 0 0 0 0 0 0 0 0 0 0 0 0 0 0 0 0 0 0 0 0 0
0 0 0 0 0 0 0 0 0 0 0 0 0 0 0 0 0 0 0 0 0 0 0 0 0 0 0 0 0 0 0 0 0 0 0 0 0 0 0 0 0 0 0 0 0 0 0 -0 -0
0 0 0 0 0 0 0 0 0 0 0 0 0 0 0 0 0 0 0 0 0 0 0 0 0 0 0 0 0 0 0 0 0 0 0 0 0 0 0 0 0 0 0 0 0 0 0 -0 0
0 0 0 0 0 0 0 0 0 0 0 0 0 0 0 0 0 0 0 0 0 0 0 0 0 0 0 0 0 0 0 0 0 0 0 0 0 0 0 0 0 0 0 0 0 0 0 -0 0
0 0 0 0 0 0 0 0 0 0 0 0 0 0 0 0 0 0 0 0 0 0 0 0 0 0 0 0 0 0 0 0 0 0 0 0 0 0 0 0 0 0 0 0 0 0 0 -0 0
0 0 0 0 0 0 0 0 0 0 0 0 0 0 0 0 0 0 0 0 0 0 0 0 0 0 0 0 0 0 0 0 0 0 0 0 0 0 0 0 0 0 0 0 0 0 0 0 0
0 0 0 0 0 0 0 0 0 0 0 0 0 0 0 0 0 0 0 0 0 0 0 0 0 0 0 0 0 0 0 0 0 0 0 0 0 0 0 0 0 0 0 0 0 -0 0 -0 0
0 0 0 0 0 0 0 0 0 0 0 0 0 0 0 0 0 0 0 0 0 0 0 0 0 0 0 0 0 0 0 0 0 0 0 0 0 0 0 0 0 0 0 0 0 -0 0 0 0
0 0 0 0 0 0 0 0 0 0 0 0 0 0 0 0 0 0 0 0 0 0 0 0 0 0 0 0 0 0 0 0 0 0 0 0 0 0 0 0 0 0 0 0 0 -0 -0 -0 0
0 0 0 0 0 0 0 0 0 0 0 0 0 0 0 0 0 0 0 0 0 0 0 0 0 0 0 0 0 0 0 0 0 0 0 0 0 0 0 0 0 -0 -0 -0 -0 -0 -0 -0 -0
0 0 0 0 0 0 0 0 0 0 0 0 0 0 0 0 0 0 0 0 0 0 0 0 0 0 0 0 0 0 0 0 0 0 0 0 0 0 0 0 0 -0 0 -0 -0 -0 -0 -0 -0
0 0 0 0 0 0 0 0 0 0 0 0 0 0 0 0 0 0 0 0 0 0 0 0 0 0 0 0 0 0 0 0 0 0 0 0 0 0 0 0 0 0 0 0 -0 -0 -0 -0 -0
0 0 0 0 0 0 0 0 0 0 0 0 0 0 0 0 0 0 0 0 0 0 0 0 0 0 0 0 0 0 0 0 0 0 0 0 0 0 0 0 0 0 -0 0 -0 -0 0 0 0
Wind_Speed_500mb
7 8 7 3 7 9 6 10 5 6 4 2 3 10 11 6 2 6 14 14 8 13 15 24 26 21 17 14 12 12 15 15 15 15 14 14 14 14 16 17 19 24 28 28 23 14 13 17 22
5 7 6 5 8 4 9 9 7 6 9 8 11 12 7 2 3 10 24 21 17 13 12 21 25 20 16 13 12 13 13 11 9 9 10 10 11 12 14 15 17 19 22 27 33 32 21 16 17
7 9 4 8 7 8 7 7 8 7 10 8 6 8 9 11 9 11 10 16 17 14 14 23 25 20 13 12 14 13 10 8 8 8 7 7 8 9 11 13 15 16 19 22 27 34 36 34 27
9 6 7 7 9 11 8 9 10 9 5 6 13 9 10 12 7 10 11 14 14 13 16 22 21 16 13 13 12 10 9 7 7 7 8 9 11 12 14 16 17 19 21 23 24 28 34 40 40
9 6 6 3 9 8 10 4 9 4 5 8 9 10 10 13 12 11 12 13 14 15 18 19 19 13 11 11 9 8 7 7 8 8 11 13 15 16 18 19 20 21 23 25 28 30 32 35 40
7 5 7 4 9 9 6 5 5 6 5 3 3 10 8 12 10 11 13 13 13 12 14 17 16 12 10 8 8 8 8 8 8 11 13 16 19 20 21 20 20 21 22 24 26 30 34 35 36
11 8 9 8 9 9 6 7 4 2 2 4 4 8 9 19 13 15 17 15 14 13 13 16 16 12 9 8 8 8 9 8 10 12 15 17 20 22 24 26 29 30 31 29 30 30 32 34 36
5 8 3 8 6 6 6 7 1 3 4 2 7 8 10 29 24 21 21 20 18 17 17 16 14 11 8 7 7 8 8 9 10 12 15 18 22 27 28 29 31 32 32 32 33 33 34 34 35
6 8 6 9 6 5 4 4 2 4 8 10 8 10 11 16 31 28 28 29 28 25 20 18 15 11 9 7 6 6 8 10 13 14 18 23 28 31 33 35 36 34 31 28 28 28 28 29 34
8 7 17 9 3 6 5 4 9 6 6 12 22 19 16 21 30 32 32 32 31 29 23 19 16 10 10 8 5 6 9 12 16 21 24 29 31 33 34 32 33 33 31 25 19 21 24 24 24
11 11 8 5 5 5 4 8 5 5 10 27 17 16 21 32 35 34 31 30 27 24 25 19 17 13 12 9 7 8 11 15 20 26 29 30 33 32 30 28 26 23 22 20 18 16 18 22 23
5 19 14 8 7 7 6 11 13 23 32 18 21 9 19 33 39 39 34 32 32 32 26 22 17 16 14 11 11 12 14 17 22 28 32 35 32 29 27 25 23 19 19 21 21 18 18 20 19
8 8 13 13 20 22 23 18 19 45 51 43 44 40 31 32 39 37 29 23 27 29 25 20 19 20 17 14 15 13 15 19 23 27 32 30 28 27 24 22 20 19 21 20 17 14 15 19 16
6 7 20 23 27 14 9 6 5 15 11 5 11 24 40 46 41 38 36 31 31 24 23 19 19 20 19 17 16 14 16 19 24 28 26 24 23 23 20 19 19 19 21 19 22 20 15 10 14
2 10 14 15 12 11 4 14 17 24 16 15 9 10 16 26 37 42 34 31 26 22 22 22 21 21 22 19 15 13 15 20 25 26 20 20 21 19 17 19 20 22 25 23 21 16 14 5 11
1 3 7 2 11 5 9 17 8 14 17 16 12 13 18 24 27 31 30 29 28 26 28 27 25 23 24 20 13 12 17 20 23 18 17 17 18 13 18 19 23 27 31 16 11 16 10 5 9
2 7 10 9 11 5 6 13 9 4 5 18 29 37 31 31 31 30 30 30 29 28 31 32 28 24 22 17 12 14 16 18 14 13 14 14 11 14 16 22 27 25 20 24 21 19 10 5 8
14 10 10 9 7 5 6 25 23 50 46 56 52 39 30 31 35 33 28 30 28 29 30 28 27 23 21 16 13 13 16 14 10 12 11 11 8 13 17 22 22 20 19 21 20 16 18 12 10
9 5 4 3 5 4 13 19 30 37 35 41 43 31 25 20 30 34 31 31 29 31 31 27 25 22 20 15 11 12 13 8 6 7 10 8 7 11 13 18 18 16 18 18 17 9 15 14 16
3 1 7 6 1 3 12 28 26 15 12 15 19 26 29 32 37 39 34 31 27 30 29 26 24 22 18 13 10 13 11 5 6 4 5 8 8 8 12 15 17 19 19 17 14 11 6 13 13
7 10 7 6 2 2 9 18 10 3 7 17 19 28 26 33 42 40 36 30 30 30 28 24 24 21 16 11 10 11 9 4 1 3 3 4 6 6 11 13 16 18 21 16 12 10 9 7 11
9 13 10 6 6 7 4 9 9 8 3 8 14 22 26 30 33 36 36 35 33 28 26 25 23 19 15 10 9 8 7 5 2 1 1 1 2 3 8 11 14 18 17 13 13 10 6 12 17
10 6 14 7 7 6 4 4 15 4 2 6 12 18 21 25 29 34 34 31 32 29 28 25 23 19 14 11 10 9 9 5 2 1 3 3 2 3 6 11 11 14 14 10 10 9 11 12 8
17 12 16 10 7 3 12 13 12 6 3 2 5 17 22 26 27 30 31 31 31 30 28 25 21 17 15 11 10 8 9 6 4 4 4 5 4 1 5 10 9 14 13 7 9 11 12 11 7
9 11 5 5 5 11 4 8 16 7 3 3 11 20 22 25 27 33 37 38 34 31 27 25 21 18 16 12 10 8 11 8 6 6 5 4 6 5 2 7 8 12 12 5 12 15 10 10 12
12 11 11 16 9 6 2 13 11 5 5 3 2 24 21 25 27 29 32 34 31 30 28 26 22 20 17 13 11 9 12 10 8 8 7 6 7 7 2 5 7 10 13 9 10 19 13 10 14
12 10 7 13 5 6 8 11 10 4 7 7 11 20 20 22 28 29 31 31 31 32 29 26 24 21 18 14 12 11 12 11 9 9 9 7 8 8 5 2 4 6 9 13 18 19 16 17 25
5 9 7 5 7 7 7 8 9 12 11 7 6 8 13 18 23 28 30 30 32 30 28 30 27 22 19 16 14 12 11 13 12 10 10 8 9 8 8 4 3 2 5 15 15 23 23 23 24
6 5 5 9 8 10 5 11 9 16 15 16 11 9 7 10 17 21 24 26 27 28 30 30 30 25 21 16 16 13 12 15 15 12 12 9 9 9 10 8 6 4 5 13 18 24 24 24 23
5 11 13 10 10 3 6 10 2 15 15 20 12 9 10 9 7 16 19 22 25 28 30 29 31 29 24 20 18 15 14 17 19 16 14 11 9 11 12 9 8 7 9 14 19 20 22 21 26
Wind_Direction_500mb
261 246 236 187 56 65 262 261 267 352 44 116 83 81 129 90 162 215 166 179 240 234 213 200 199 199 205 216 245 268 279 276 270 267 269 270 270 268 269 265 259 251 243 249 242 250 268 253 244
235 210 182 118 91 73 275 262 154 203 161 112 95 99 99 177 101 169 167 196 223 223 216 201 197 201 213 238 267 288 287 279 275 281 280 282 282 279 274 272 269 263 256 247 245 249 251 252 255
199 183 158 100 117 180 204 239 221 202 157 150 114 79 131 160 172 178 213 202 213 210 201 190 197 205 226 267 288 290 286 289 290 287 290 290 288 291 291 286 282 276 267 258 250 249 245 245 245
175 143 70 95 217 249 228 241 211 179 145 130 147 98 115 177 198 202 218 215 208 204 189 191 198 211 239 270 283 288 288 287 288 297 300 303 308 309 305 304 297 289 284 275 265 255 249 246 245
135 101 64 6 263 254 263 265 249 165 135 173 172 173 159 184 200 218 230 212 208 200 191 195 203 222 261 280 283 277 280 292 299 305 317 322 322 323 319 315 311 302 292 284 278 270 261 254 249
108 98 70 228 257 268 264 345 251 34 48 153 164 132 167 188 197 213 214 217 218 216 201 202 211 233 257 265 272 286 300 297 310 321 327 331 330 325 320 315 304 295 288 282 275 270 266 260 253
124 95 195 210 252 292 248 347 99 119 35 196 225 124 169 191 191 201 206 220 229 225 223 215 220 237 244 255 273 286 287 302 320 327 333 327 320 316 311 309 309 305 297 287 277 266 259 257 253
138 96 215 244 220 252 304 323 136 81 268 291 205 198 217 207 190 195 208 223 229 232 231 226 227 233 241 256 272 279 300 312 320 324 322 322 327 324 320 315 309 304 300 296 288 281 272 259 252
159 71 209 246 216 221 338 350 284 292 262 262 229 243 270 198 190 198 207 216 226 230 235 234 228 230 234 239 266 304 308 307 313 330 331 334 330 329 326 321 322 322 317 310 298 287 277 265 256
122 141 217 215 212 216 295 301 316 309 277 270 258 243 245 206 203 211 219 228 233 235 233 235 234 234 241 249 282 310 302 313 328 334 337 335 332 327 324 326 324 321 318 316 309 292 278 263 257
183 199 216 249 235 256 247 273 248 249 258 249 243 191 199 200 208 222 234 244 256 249 244 242 239 233 238 259 282 301 308 325 334 332 331 329 328 332 331 326 323 322 318 314 309 297 277 268 253
210 243 243 274 254 278 262 289 289 238 244 260 195 231 252 226 223 228 233 241 236 238 241 244 243 244 248 263 272 295 316 326 329 327 325 331 337 336 335 334 330 325 325 321 311 294 271 262 259
209 268 262 249 288 276 279 253 260 271 278 264 241 256 256 243 235 233 240 243 235 231 233 234 233 234 236 247 266 292 314 320 321 321 329 334 340 342 336 338 344 345 338 329 335 321 299 261 259
210 256 280 288 276 268 255 246 317 264 302 267 213 236 244 245 244 239 234 232 227 224 227 229 229 232 235 244 267 296 310 315 316 323 333 339 345 331 338 350 359 353 350 347 339 331 318 289 259
233 312 311 245 249 224 306 283 231 254 249 199 237 248 252 248 233 239 250 240 233 226 220 226 230 232 236 246 269 297 306 314 320 329 339 349 335 342 360 5 8 359 353 334 334 332 319 325 313
99 87 311 200 143 182 121 274 278 291 213 230 214 208 255 247 242 241 237 233 228 223 214 214 225 233 239 249 274 292 301 316 324 334 340 352 335 360 15 24 4 357 349 360 13 349 340 311 319
317 222 209 299 196 113 171 271 276 243 289 281 269 277 271 246 232 227 225 225 226 225 214 213 219 224 235 248 263 281 302 316 329 333 346 347 348 24 35 17 4 358 17 36 18 3 22 352 341
193 210 228 232 195 164 236 263 275 276 279 276 278 275 268 245 238 216 206 209 216 218 218 219 213 219 226 238 255 285 304 319 334 339 0 347 20 50 30 12 13 21 35 32 23 20 38 60 56
145 172 211 228 188 196 236 268 280 284 270 269 269 255 243 218 189 191 191 195 201 207 215 215 220 214 217 228 254 282 296 308 322 353 6 352 20 49 29 8 21 32 21 26 20 4 50 97 89
298 113 255 289 238 210 314 289 274 284 270 294 269 197 175 163 165 175 185 192 201 201 204 213 216 211 211 215 248 276 281 270 304 23 5 339 27 45 24 9 16 10 16 17 35 28 71 109 95
222 191 203 208 331 244 321 295 328 30 85 58 100 152 160 167 168 174 183 189 190 194 202 208 207 208 205 217 253 277 272 258 280 51 357 339 33 54 28 17 13 19 12 22 46 40 60 148 156
193 199 168 146 80 229 8 273 308 331 49 73 131 153 164 172 176 182 187 187 187 189 199 198 200 200 212 224 256 271 243 249 254 145 6 23 24 82 26 15 24 13 4 26 61 53 85 136 161
211 143 157 119 106 44 283 73 271 319 171 205 186 184 184 187 192 189 191 191 186 193 194 192 196 201 214 230 254 259 228 216 209 218 145 167 147 86 20 7 31 6 18 50 76 99 103 126 163
146 81 50 54 79 10 223 160 280 226 203 177 182 196 189 186 186 188 190 194 195 195 195 194 197 209 221 235 253 252 233 212 202 187 184 170 180 125 355 9 14 2 13 40 110 127 144 108 156
90 96 26 5 4 215 333 134 247 248 253 201 201 195 193 191 187 188 193 192 196 201 199 201 203 216 226 238 251 244 231 218 208 209 188 193 203 192 329 2 357 349 16 38 143 142 139 98 97
177 166 158 194 191 210 29 222 248 225 325 156 198 188 189 192 195 199 201 201 202 205 207 210 211 216 226 240 250 247 225 224 214 217 203 201 219 215 208 3 4 36 30 98 135 153 145 113 97
182 198 164 104 35 71 207 274 293 112 61 79 130 171 190 197 202 205 207 211 211 211 214 216 218 218 225 231 245 247 224 222 217 219 218 203 206 223 207 340 356 41 64 96 132 151 139 123 129
166 165 83 4 136 228 281 276 238 201 181 147 135 188 215 206 207 209 213 214 215 217 220 220 222 222 226 230 239 240 229 218 217 214 220 205 189 205 219 224 278 59 101 118 129 155 163 155 143
152 191 195 127 156 166 161 251 219 187 170 160 162 123 103 202 216 221 222 222 221 221 224 226 229 228 229 232 239 240 233 222 216 207 207 205 199 207 213 211 245 212 167 148 131 139 147 162 160
302 204 182 150 225 205 149 263 123 149 152 148 150 131 115 112 160 210 214 216 216 220 226 232 235 235 234 231 239 242 236 222 218 213 211 213 204 216 203 205 216 229 191 176 163 154 154 167 164
Wind_Speed_850mb
7 8 7 3 7 9 6 10 5 6 4 2 3 10 11 6 2 6 14 14 8 13 15 24 26 21 17 14 12 12 15 15 15 15 14 14 14 14 16 17 19 24 28 28 23 14 13 17 22
5 7 6 5 8 4 9 9 7 6 9 8 11 12 7 2 3 10 24 21 17 13 12 21 25 20 16 13 12 13 13 11 9 9 10 10 11 12 14 15 17 19 22 27 33 32 21 16 17
7 9 4 8 7 8 7 7 8 7 10 8 6 8 9 11 9 11 10 16 17 14 14 23 25 20 13 12 14 13 10 8 8 8 7 7 8 9 11 13 15 16 19 22 27 34 36 34 27
9 6 7 7 9 11 8 9 10 9 5 6 13 9 10 12 7 10 11 14 14 13 16 22 21 16 13 13 12 10 9 7 7 7 8 9 11 12 14 16 17 19 21 23 24 28 34 40 40
9 6 6 3 9 8 10 4 9 4 5 8 9 10 10 13 12 11 12 13 14 15 18 19 19 13 11 11 9 8 7 7 8 8 11 13 15 16 18 19 20 21 23 25 28 30 32 35 40
7 5 7 4 9 9 6 5 5 6 5 3 3 10 8 12 10 11 13 13 13 12 14 17 16 12 10 8 8 8 8 8 8 11 13 16 19 20 21 20 20 21 22 24 26 30 34 35 36
11 8 9 8 9 9 6 7 4 2 2 4 4 8 9 19 13 15 17 15 14 13 13 16 16 12 9 8 8 8 9 8 10 12 15 17 20 22 24 26 29 30 31 29 30 30 32 34 36
5 8 3 8 6 6 6 7 1 3 4 2 7 8 10 29 24 21 21 20 18 17 17 16 14 11 8 7 7 8 8 9 10 12 15 18 22 27 28 29 31 32 32 32 33 33 34 34 35
6 8 6 9 6 5 4 4 2 4 8 10 8 10 11 16 31 28 28 29 28 25 20 18 15 11 9 7 6 6 8 10 13 14 18 23 28 31 33 35 36 34 31 28 28 28 28 29 34
8 7 17 9 3 6 5 4 9 6 6 12 22 19 16 21 30 32 32 32 31 29 23 19 16 10 10 8 5 6 9 12 16 21 24 29 31 33 34 32 33 33 31 25 19 21 24 24 24
11 11 8 5 5 5 4 8 5 5 10 27 17 16 21 32 35 34 31 30 27 24 25 19 17 13 12 9 7 8 11 15 20 26 29 30 33 32 30 28 26 23 22 20 18 16 18 22 23
5 19 14 8 7 7 6 11 13 23 32 18 21 9 19 33 39 39 34 32 32 32 26 22 17 16 14 11 11 12 14 17 22 28 32 35 32 29 27 25 23 19 19 21 21 18 18 20 19
8 8 13 13 20 22 23 18 19 45 51 43 44 40 31 32 39 37 29 23 27 29 25 20 19 20 17 14 15 13 15 19 23 27 32 30 28 27 24 22 20 19 21 20 17 14 15 19 16
6 7 20 23 27 14 9 6 5 15 11 5 11 24 40 46 41 38 36 31 31 24 23 19 19 20 19 17 16 14 16 19 24 28 26 24 23 23 20 19 19 19 21 19 22 20 15 10 14
2 10 14 15 12 11 4 14 17 24 16 15 9 10 16 26 37 42 34 31 26 22 22 22 21 21 22 19 15 13 15 20 25 26 20 20 21 19 17 19 20 22 25 23 21 16 14 5 11
1 3 7 2 11 5 9 17 8 14 17 16 12 13 18 24 27 31 30 29 28 26 28 27 25 23 24 20 13 12 17 20 23 18 17 17 18 13 18 19 23 27 31 16 11 16 10 5 9
2 7 10 9 11 5 6 13 9 4 5 18 29 37 31 31 31 30 30 30 29 28 31 32 28 24 22 17 12 14 16 18 14 13 14 14 11 14 16 22 27 25 20 24 21 19 10 5 8
14 10 10 9 7 5 6 25 23 50 46 56 52 39 30 31 35 33 28 30 28 29 30 28 27 23 21 16 13 13 16 14 10 12 11 11 8 13 17 22 22 20 19 21 20 16 18 12 10
9 5 4 3 5 4 13 19 30 37 35 41 43 31 25 20 30 34 31 31 29 31 31 27 25 22 20 15 11 12 13 8 6 7 10 8 7 11 13 18 18 16 18 18 17 9 15 14 16
3 1 7 6 1 3 12 28 26 15 12 15 19 26 29 32 37 39 34 31 27 30 29 26 24 22 18 13 10 13 11 5 6 4 5 8 8 8 12 15 17 19 19 17 14 11 6 13 13
7 10 7 6 2 2 9 18 10 3 7 17 19 28 26 33 42 40 36 30 30 30 28 24 24 21 16 11 10 11 9 4 1 3 3 4 6 6 11 13 16 18 21 16 12 10 9 7 11
9 13 10 6 6 7 4 9 9 8 3 8 14 22 26 30 33 36 36 35 33 28 26 25 23 19 15 10 9 8 7 5 2 1 1 1 2 3 8 11 14 18 17 13 13 10 6 12 17
10 6 14 7 7 6 4 4 15 4 2 6 12 18 21 25 29 34 34 31 32 29 28 25 23 19 14 11 10 9 9 5 2 1 3 3 2 3 6 11 11 14 14 10 10 9 11 12 8
17 12 16 10 7 3 12 13 12 6 3 2 5 17 22 26 27 30 31 31 31 30 28 25 21 17 15 11 10 8 9 6 4 4 4 5 4 1 5 10 9 14 13 7 9 11 12 11 7
9 11 5 5 5 11 4 8 16 7 3 3 11 20 22 25 27 33 37 38 34 31 27 25 21 18 16 12 10 8 11 8 6 6 5 4 6 5 2 7 8 12 12 5 12 15 10 10 12
12 11 11 16 9 6 2 13 11 5 5 3 2 24 21 25 27 29 32 34 31 30 28 26 22 20 17 13 11 9 12 10 8 8 7 6 7 7 2 5 7 10 13 9 10 19 13 10 14
12 10 7 13 5 6 8 11 10 4 7 7 11 20 20 22 28 29 31 31 31 32 29 26 24 21 18 14 12 11 12 11 9 9 9 7 8 8 5 2 4 6 9 13 18 19 16 17 25
5 9 7 5 7 7 7 8 9 12 11 7 6 8 13 18 23 28 30 30 32 30 28 30 27 22 19 16 14 12 11 13 12 10 10 8 9 8 8 4 3 2 5 15 15 23 23 23 24
6 5 5 9 8 10 5 11 9 16 15 16 11 9 7 10 17 21 24 26 27 28 30 30 30 25 21 16 16 13 12 15 15 12 12 9 9 9 10 8 6 4 5 13 18 24 24 24 23
5 11 13 10 10 3 6 10 2 15 15 20 12 9 10 9 7 16 19 22 25 28 30 29 31 29 24 20 18 15 14 17 19 16 14 11 9 11 12 9 8 7 9 14 19 20 22 21 26
Wind_Direction_850mb
261 246 236 187 56 65 262 261 267 352 44 116 83 81 129 90 162 215 166 179 240 234 213 200 199 199 205 216 245 268 279 276 270 267 269 270 270 268 269 265 259 251 243 249 242 250 268 253 244
235 210 182 118 91 73 275 262 154 203 161 112 95 99 99 177 101 169 167 196 223 223 216 201 197 201 213 238 267 288 287 279 275 281 280 282 282 279 274 272 269 263 256 247 245 249 251 252 255
199 183 158 100 117 180 204 239 221 202 157 150 114 79 131 160 172 178 213 202 213 210 201 190 197 205 226 267 288 290 286 289 290 287 290 290 288 291 291 286 282 276 267 258 250 249 245 245 245
175 143 70 95 217 249 228 241 211 179 145 130 147 98 115 177 198 202 218 215 208 204 189 191 198 211 239 270 283 288 288 287 288 297 300 303 308 309 305 304 297 289 284 275 265 255 249 246 245
135 101 64 6 263 254 263 265 249 165 135 173 172 173 159 184 200 218 230 212 208 200 191 195 203 222 261 280 283 277 280 292 299 305 317 322 322 323 319 315 311 302 292 284 278 270 261 254 249
108 98 70 228 257 268 264 345 251 34 48 153 164 132 167 188 197 213 214 217 218 216 201 202 211 233 257 265 272 286 300 297 310 321 327 331 330 325 320 315 304 295 288 282 275 270 266 260 253
124 95 195 210 252 292 248 347 99 119 35 196 225 124 169 191 191 201 206 220 229 225 223 215 220 237 244 255 273 286 287 302 320 327 333 327 320 316 311 309 309 305 297 287 277 266 259 257 253
138 96 215 244 220 252 304 323 136 81 268 291 205 198 217 207 190 195 208 223 229 232 231 226 227 233 241 256 272 279 300 312 320 324 322 322 327 324 320 315 309 304 300 296 288 281 272 259 252
159 71 209 246 216 221 338 350 284 292 262 262 229 243 270 198 190 198 207 216 226 230 235 234 228 230 234 239 266 304 308 307 313 330 331 334 330 329 326 321 322 322 317 310 298 287 277 265 256
122 141 217 215 212 216 295 301 316 309 277 270 258 243 245 206 203 211 219 228 233 235 233 235 234 234 241 249 282 310 302 313 328 334 337 335 332 327 324 326 324 321 318 316 309 292 278 263 257
183 199 216 249 235 256 247 273 248 249 258 249 243 191 199 200 208 222 234 244 256 249 244 242 239 233 238 259 282 301 308 325 334 332 331 329 328 332 331 326 323 322 318 314 309 297 277 268 253
210 243 243 274 254 278 262 289 289 238 244 260 195 231 252 226 223 228 233 241 236 238 241 244 243 244 248 263 272 295 316 326 329 327 325 331 337 336 335 334 330 325 325 321 311 294 271 262 259
209 268 262 249 288 276 279 253 260 271 278 264 241 256 256 243 235 233 240 243 235 231 233 234 233 234 236 247 266 292 314 320 321 321 329 334 340 342 336 338 344 345 338 329 335 321 299 261 259
210 256 280 288 276 268 255 246 317 264 302 267 213 236 244 245 244 239 234 232 227 224 227 229 229 232 235 244 267 296 310 315 316 323 333 339 345 331 338 350 359 353 350 347 339 331 318 289 259
233 312 311 245 249 224 306 283 231 254 249 199 237 248 252 248 233 239 250 240 233 226 220 226 230 232 236 246 269 297 306 314 320 329 339 349 335 342 360 5 8 359 353 334 334 332 319 325 313
99 87 311 200 143 182 121 274 278 291 213 230 214 208 255 247 242 241 237 233 228 223 214 214 225 233 239 249 274 292 301 316 324 334 340 352 335 360 15 24 4 357 349 360 13 349 340 311 319
317 222 209 299 196 113 171 271 276 243 289 281 269 277 271 246 232 227 225 225 226 225 214 213 219 224 235 248 263 281 302 316 329 333 346 347 348 24 35 17 4 358 17 36 18 3 22 352 341
193 210 228 232 195 164 236 263 275 276 279 276 278 275 268 245 238 216 206 209 216 218 218 219 213 219 226 238 255 285 304 319 334 339 0 347 20 50 30 12 13 21 35 32 23 20 38 60 56
145 172 211 228 188 196 236 268 280 284 270 269 269 255 243 218 189 191 191 195 201 207 215 215 220 214 217 228 254 282 296 308 322 353 6 352 20 49 29 8 21 32 21 26 20 4 50 97 89
298 113 255 289 238 210 314 289 274 284 270 294 269 197 175 163 165 175 185 192 201 201 204 213 216 211 211 215 248 276 281 270 304 23 5 339 27 45 24 9 16 10 16 17 35 28 71 109 95
222 191 203 208 331 244 321 295 328 30 85 58 100 152 160 167 168 174 183 189 190 194 202 208 207 208 205 217 253 277 272 258 280 51 357 339 33 54 28 17 13 19 12 22 46 40 60 148 156
193 199 168 146 80 229 8 273 308 331 49 73 131 153 164 172 176 182 187 187 187 189 199 198 200 200 212 224 256 271 243 249 254 145 6 23 24 82 26 15 24 13 4 26 61 53 85 136 161
211 143 157 119 106 44 283 73 271 319 171 205 186 184 184 187 192 189 191 191 186 193 194 192 196 201 214 230 254 259 228 216 209 218 145 167 147 86 20 7 31 6 18 50 76 99 103 126 163
146 81 50 54 79 10 223 160 280 226 203 177 182 196 189 186 186 188 190 194 195 195 195 194 197 209 221 235 253 252 233 212 202 187 184 170 180 125 355 9 14 2 13 40 110 127 144 108 156
90 96 26 5 4 215 333 134 247 248 253 201 201 195 193 191 187 188 193 192 196 201 199 201 203 216 226 238 251 244 231 218 208 209 188 193 203 192 329 2 357 349 16 38 143 142 139 98 97
177 166 158 194 191 210 29 222 248 225 325 156 198 188 189 192 195 199 201 201 202 205 207 210 211 216 226 240 250 247 225 224 214 217 203 201 219 215 208 3 4 36 30 98 135 153 145 113 97
182 198 164 104 35 71 207 274 293 112 61 79 130 171 190 197 202 205 207 211 211 211 214 216 218 218 225 231 245 247 224 222 217 219 218 203 206 223 207 340 356 41 64 96 132 151 139 123 129
166 165 83 4 136 228 281 276 238 201 181 147 135 188 215 206 207 209 213 214 215 217 220 220 222 222 226 230 239 240 229 218 217 214 220 205 189 205 219 224 278 59 101 118 129 155 163 155 143
152 191 195 127 156 166 161 251 219 187 170 160 162 123 103 202 216 221 222 222 221 221 224 226 229 228 229 232 239 240 233 222 216 207 207 205 199 207 213 211 245 212 167 148 131 139 147 162 160
302 204 182 150 225 205 149 263 123 149 152 148 150 131 115 112 160 210 214 216 216 220 226 232 235 235 234 231 239 242 236 222 218 213 211 213 204 216 203 205 216 229 191 176 163 154 154 167 164